Temperature
15 16 16 16 16 16 15 14 14 14 15 15 14 14 15 15 15 15 14 15 15 15 15 15 15 15 15 15 15 14 14 14 14 14 14 14 13 13 13 13 13 12 12 12
15 16 15 15 15 15 15 15 14 14 14 14 14 14 14 14 14 13 13 14 14 14 14 14 14 14 14 14 14 14 14 14 14 13 13 13 13 13 13 13 12 12 12 12
13 14 15 14 14 14 14 14 14 13 13 14 13 13 13 13 13 13 13 13 13 13 14 14 14 14 14 14 14 14 14 14 13 13 13 13 13 13 13 12 12 12 12 11
12 14 14 14 14 15 14 14 14 13 13 13 13 13 13 13 13 13 13 12 13 13 13 13 13 14 14 14 14 14 13 13 13 13 13 13 12 12 12 12 12 12 11 11
11 12 13 14 14 14 14 13 13 13 12 13 13 12 12 12 12 12 12 12 12 12 12 13 13 13 13 13 13 13 13 13 13 13 12 12 12 12 12 12 11 11 11 11
11 12 12 13 14 15 14 12 12 12 12 12 12 10 10 12 12 12 12 12 12 12 12 12 12 12 12 12 12 12 12 12 12 12 12 12 12 12 11 11 11 11 11 11
11 11 12 12 13 14 13 12 12 12 12 12 11 11 11 11 12 12 12 11 11 11 11 11 11 11 12 12 12 12 12 12 12 12 12 12 11 11 11 11 11 11 10 10
10 11 11 12 12 12 11 12 12 12 12 12 12 12 11 11 11 11 11 11 11 11 11 11 11 11 11 11 11 11 11 11 11 11 11 11 11 11 11 11 10 10 10 10
10 11 11 12 12 13 13 12 12 12 12 12 11 11 11 11 11 11 10 10 10 10 10 10 10 10 10 10 10 10 11 11 11 11 11 10 10 10 10 10 10 10 9 9
9 10 11 12 12 12 12 12 12 12 12 12 11 11 11 10 10 10 10 10 10 10 10 10 10 10 10 10 10 10 10 10 10 10 10 10 10 10 10 9 9 9 9 9
9 10 10 11 12 12 11 12 11 11 11 11 11 11 10 10 10 10 10 9 9 9 9 9 9 9 9 9 9 9 9 9 9 9 9 9 9 9 9 9 9 8 8 8
9 10 9 10 11 11 11 11 11 11 11 11 11 10 10 10 10 9 9 9 9 9 9 9 9 9 9 9 9 9 9 9 9 9 9 8 8 8 8 8 8 8 8 8
11 11 11 11 11 10 10 10 10 10 10 10 10 10 10 9 9 9 9 9 9 9 9 8 8 8 8 8 8 8 8 8 8 8 8 8 8 8 8 7 7 7 7 7
11 11 10 10 10 10 10 10 10 10 10 10 9 9 9 9 9 9 9 8 8 8 8 8 8 8 8 8 8 8 8 8 7 7 7 7 7 7 7 7 7 7 6 6
10 10 10 10 10 9 9 9 9 9 9 9 9 9 9 8 8 8 8 8 8 8 8 8 8 8 7 7 7 7 7 7 7 7 7 7 7 6 6 6 6 6 6 6
9 9 9 9 9 9 9 9 9 9 9 8 8 8 8 8 8 8 8 7 7 7 7 7 7 7 7 7 6 6 6 6 6 6 6 6 6 6 6 5 5 5 5 5
8 8 8 8 8 8 8 8 8 8 8 8 8 7 7 7 7 7 7 7 7 7 7 7 6 6 6 6 6 6 6 6 6 6 6 5 5 5 5 5 5 5 5 5
8 8 8 8 8 8 8 8 8 8 7 7 7 7 7 7 6 6 6 6 6 6 6 6 6 6 6 6 5 5 5 5 5 5 5 5 5 4 4 4 4 4 4 4
7 7 7 7 7 7 7 7 7 7 7 7 6 6 6 6 6 6 6 6 5 5 5 5 5 5 5 5 5 5 5 5 5 5 4 4 4 4 4 4 4 4 4 4
7 7 7 7 7 7 7 6 6 6 6 6 6 6 5 5 5 5 5 5 5 5 5 5 5 5 5 4 4 4 4 4 4 4 4 4 4 4 3 3 3 3 3 3
6 6 6 6 6 6 6 6 6 6 5 5 5 5 5 4 4 4 4 4 4 4 4 4 4 4 4 4 4 4 4 4 4 4 4 3 3 3 3 3 3 3 3 3
6 6 5 5 5 5 5 5 5 5 5 4 4 4 4 4 3 3 3 3 3 3 3 3 3 4 4 4 4 3 3 3 3 3 3 3 3 3 3 2 2 2 2 2
5 5 5 5 5 5 5 4 4 4 4 4 3 3 3 3 3 3 3 3 3 3 3 3 3 3 3 3 3 3 3 3 3 3 3 3 2 2 2 2 2 2 2 2
5 5 4 4 4 4 4 4 4 3 3 3 3 3 2 2 2 2 2 2 2 2 2 3 3 3 3 3 3 3 3 3 3 2 2 2 2 2 2 2 2 2 2 1
4 4 4 4 4 4 3 3 3 3 3 2 2 2 2 2 2 2 2 2 2 2 2 2 2 2 2 2 2 2 2 2 2 2 2 2 2 2 2 2 1 1 1 1
4 4 4 3 3 3 3 3 2 2 2 2 2 2 2 2 2 1 1 1 1 2 1 2 2 2 2 2 2 2 2 2 2 2 2 2 2 2 2 1 1 1 1 1
3 3 3 3 3 3 2 2 2 2 2 1 1 1 1 1 1 1 1 1 1 1 1 1 1 1 1 1 2 2 2 1 1 1 1 1 1 1 1 1 1 1 1 1
Wind_Speed
4 4 2 3 4 2 2 5 6 5 5 5 3 2 1 0 1 2 2 1 1 1 1 1 0 1 1 2 3 3 4 5 6 6 5 5 6 6 5 5 5 5 4 4
3 2 1 2 4 3 3 3 3 2 3 3 2 1 2 1 2 2 2 1 1 0 1 1 1 1 1 2 2 3 4 5 5 5 5 5 5 5 5 4 4 4 4 4
3 3 3 3 4 3 2 1 3 3 4 2 1 2 1 1 2 2 1 1 1 1 2 2 3 2 2 3 2 3 3 4 4 5 5 5 5 5 5 5 4 4 4 4
1 1 3 5 2 2 2 1 1 1 1 1 1 2 3 4 3 3 2 2 2 2 2 3 3 2 2 2 2 2 3 3 4 5 6 5 5 5 5 4 5 5 5 5
2 2 4 4 3 2 2 2 2 1 1 2 2 4 4 4 3 1 1 1 2 2 2 2 2 2 1 1 1 1 1 2 3 5 6 6 6 6 4 4 4 4 4 5
2 3 5 4 5 3 3 1 4 1 1 1 4 2 3 4 3 3 2 2 2 2 2 2 3 2 1 1 1 2 3 4 3 4 5 6 7 6 4 4 5 5 4 4
3 4 5 4 5 2 2 4 3 0 1 1 1 3 3 1 2 2 2 2 2 2 2 2 2 2 1 1 2 3 3 2 2 4 5 6 5 4 4 4 4 4 3 3
3 3 5 4 2 2 4 2 2 1 1 1 1 1 1 0 1 2 3 3 2 2 2 2 1 1 2 3 4 2 2 1 1 2 3 3 4 3 3 4 4 3 3 2
5 5 4 2 1 1 2 2 1 1 1 1 2 1 1 1 2 2 2 3 2 2 2 2 2 1 1 4 3 1 1 1 1 1 1 3 4 4 3 3 4 3 3 3
1 3 2 2 1 1 1 1 1 1 1 1 2 2 2 2 2 3 3 3 2 2 3 4 3 2 2 3 1 1 1 1 1 1 1 1 2 3 4 4 4 4 4 4
3 3 2 2 2 1 2 1 1 1 2 3 3 3 3 3 3 3 4 4 3 3 4 5 4 3 3 2 1 1 1 1 1 1 1 1 1 2 3 4 5 6 6 6
6 5 4 5 4 2 2 2 2 2 2 3 3 4 4 4 4 4 4 4 3 3 4 4 3 3 3 3 1 1 1 1 1 1 1 1 1 1 1 2 4 5 6 6
5 4 4 4 3 2 2 3 3 3 3 4 4 4 3 3 3 3 4 3 4 4 4 4 3 3 4 3 1 1 2 2 1 1 1 1 2 2 1 2 1 2 4 6
2 1 2 2 3 3 3 4 3 3 3 3 3 3 2 2 2 3 4 5 5 4 3 3 3 4 4 2 1 1 2 2 2 2 2 2 2 3 3 3 2 1 2 4
2 2 3 3 2 3 3 3 2 3 3 3 2 2 2 2 3 4 4 4 3 3 3 3 3 4 3 2 2 2 2 2 2 2 2 2 2 2 2 3 3 2 1 2
3 2 2 2 2 3 3 3 3 4 4 3 3 3 3 3 3 4 3 2 2 3 4 3 4 4 3 2 2 2 2 4 3 2 2 2 2 2 3 3 3 3 3 3
0 1 2 3 3 4 3 3 3 4 3 3 3 3 2 2 3 3 3 3 2 3 3 3 4 3 2 2 2 2 2 3 4 3 3 3 3 3 3 3 3 4 4 4
3 4 4 4 3 3 3 3 3 3 3 3 3 2 2 2 3 4 4 3 2 3 3 4 3 2 2 2 2 2 2 2 2 3 3 3 3 3 3 4 4 4 3 3
1 1 1 2 2 2 3 3 3 3 3 3 2 2 2 3 3 3 3 2 2 3 4 4 4 3 3 3 3 2 2 2 2 2 2 3 2 2 2 3 3 3 2 2
2 2 2 3 2 2 2 2 2 2 2 2 2 2 2 3 3 3 3 3 3 3 4 4 4 3 3 3 3 2 2 2 2 2 2 2 2 3 3 3 3 3 3 3
2 2 2 3 3 3 2 2 1 2 2 2 1 2 2 3 3 3 2 4 5 4 4 5 3 3 3 3 3 2 2 2 3 3 3 2 2 2 2 2 2 2 2 3
2 2 2 2 3 3 3 2 1 2 2 2 2 2 2 3 3 3 3 4 4 5 4 3 3 4 4 3 2 2 2 3 3 2 3 3 3 3 2 2 2 2 2 3
3 3 3 3 3 3 3 2 2 2 2 2 3 3 3 3 3 3 4 4 3 5 4 3 5 6 5 3 2 2 2 3 3 3 3 3 3 3 3 3 3 3 3 3
3 3 3 3 2 1 3 4 3 2 2 3 3 3 3 3 3 3 4 5 6 6 4 4 6 6 5 2 2 2 2 2 2 2 2 2 2 3 3 3 3 3 3 3
3 3 2 1 1 2 3 3 3 3 3 3 4 3 3 3 3 4 4 4 5 5 3 5 7 7 4 2 2 2 3 3 2 2 2 2 3 3 3 3 3 3 3 3
2 2 2 3 2 2 2 2 2 2 3 3 3 3 3 3 3 3 3 3 4 4 3 3 4 5 3 3 3 3 2 3 3 3 2 3 3 3 3 3 4 3 3 3
2 1 1 1 2 1 2 2 2 3 3 3 3 4 4 3 3 3 3 3 3 3 3 3 4 3 3 3 3 2 2 2 2 2 2 2 2 3 3 4 3 3 3 3
Wind_Direction
249 264 252 273 283 293 234 212 208 232 235 258 276 277 272 4 63 77 69 71 102 173 215 220 244 247 236 233 218 199 192 200 210 207 199 192 187 184 181 178 182 180 181 192
292 280 325 308 300 277 267 246 205 216 272 269 281 11 35 38 79 76 61 51 24 258 241 268 261 261 268 270 249 206 202 212 211 201 190 188 188 181 175 177 180 177 186 192
267 281 356 298 270 222 221 234 180 221 259 275 57 70 63 87 96 89 56 18 343 298 252 263 264 244 244 253 251 213 214 216 202 196 192 195 189 178 183 184 179 186 194 193
230 355 246 250 274 156 130 13 32 90 280 322 124 113 66 74 82 62 39 19 346 323 312 298 281 270 269 272 250 227 227 224 209 195 192 186 180 187 194 187 185 192 198 201
150 211 265 280 291 235 183 308 349 25 14 17 78 65 29 20 41 49 26 358 328 315 298 316 323 304 328 339 320 290 271 256 231 204 194 187 189 195 196 183 188 194 195 197
154 196 235 250 297 304 113 269 320 353 74 61 77 66 297 332 4 15 13 6 351 353 13 3 337 349 29 345 336 281 268 264 242 206 197 197 197 195 195 189 193 190 196 203
193 223 255 270 306 26 153 245 275 271 136 122 165 205 223 294 348 359 359 347 344 0 4 333 333 5 2 344 293 282 284 275 248 219 206 202 198 190 180 180 181 186 198 215
179 215 257 301 34 144 221 227 201 169 150 126 117 121 124 62 340 343 328 317 327 340 322 315 341 19 344 304 293 305 314 308 284 244 215 196 182 182 175 171 177 191 195 214
193 216 259 295 187 211 156 161 218 191 256 127 103 128 270 265 277 293 299 305 310 308 306 311 296 258 284 289 296 310 322 306 293 283 230 190 179 180 179 179 185 201 202 213
241 266 288 324 25 47 130 180 245 228 197 160 189 210 230 247 270 287 289 289 296 306 305 296 283 285 273 286 289 290 270 262 251 211 235 209 184 182 186 193 196 201 205 211
253 270 306 308 311 321 341 342 328 301 234 201 202 231 238 238 254 268 280 281 277 276 279 278 279 283 288 281 279 307 272 253 235 209 194 197 198 204 207 212 204 205 209 202
235 236 226 255 260 268 282 268 252 262 274 251 225 231 242 250 256 260 268 277 283 283 281 276 271 273 281 277 248 236 255 265 256 223 205 198 191 325 314 237 229 220 212 207
234 244 239 248 252 259 264 272 270 254 245 255 258 237 233 249 263 268 276 278 276 277 273 267 266 268 274 275 250 232 239 244 238 228 221 210 202 192 254 318 291 231 225 221
252 265 288 270 267 281 287 281 277 277 270 251 249 252 247 255 268 275 274 271 273 277 271 260 258 266 271 266 250 253 256 255 244 221 226 228 222 213 207 211 226 259 248 227
303 279 245 262 279 302 305 304 295 280 272 270 258 245 248 256 261 269 277 280 286 287 277 266 262 270 274 265 244 241 249 251 245 232 226 228 227 218 214 214 214 223 242 236
310 341 344 304 286 296 300 294 280 270 266 263 256 255 257 253 264 277 285 284 277 280 281 275 266 270 265 254 255 255 255 255 252 234 221 225 219 212 213 216 214 215 221 224
279 300 285 279 276 282 278 270 259 260 263 260 260 262 267 283 298 292 288 277 256 263 268 264 266 270 258 240 244 263 266 261 261 253 228 228 225 221 217 219 220 221 229 221
217 219 225 227 239 265 283 291 287 282 272 270 265 254 264 268 276 284 287 291 300 296 287 275 269 271 260 252 248 257 264 257 247 243 235 231 230 226 220 218 222 227 240 231
330 298 276 263 258 254 268 275 284 295 301 299 286 272 270 273 280 292 305 309 298 290 293 296 300 299 275 274 284 257 260 260 261 257 238 232 234 233 226 222 222 223 217 212
348 345 334 319 308 285 269 272 286 314 318 316 318 321 319 307 301 305 308 294 280 277 284 292 295 283 273 271 281 258 249 250 247 251 246 232 229 232 231 226 220 216 215 214
321 322 322 321 310 294 272 265 265 292 306 310 298 287 291 300 306 306 302 300 299 297 299 302 305 285 275 276 285 263 248 252 247 235 228 226 226 224 224 228 225 214 215 221
293 298 302 300 298 292 284 267 257 277 298 298 291 285 290 295 299 301 286 280 287 296 304 296 296 294 299 299 286 269 258 251 250 235 220 218 217 219 225 227 232 236 234 228
278 278 284 281 272 277 294 291 286 276 279 280 275 270 274 278 277 280 294 296 293 295 305 291 300 309 309 310 285 269 264 256 249 238 226 220 217 218 224 229 233 233 236 239
277 276 276 274 274 294 297 299 299 287 281 283 283 278 280 289 295 284 278 290 300 302 303 299 307 312 315 308 280 272 271 266 253 243 233 224 224 225 227 229 230 233 234 236
272 276 280 272 269 266 268 284 304 308 307 303 307 299 282 270 272 285 290 288 292 302 306 302 305 310 315 288 275 274 269 260 250 240 232 226 226 227 231 231 229 230 230 229
261 261 260 251 249 258 267 277 285 289 292 300 308 310 305 299 288 290 296 299 298 308 310 300 298 302 297 290 284 277 273 272 270 265 250 238 235 234 233 230 229 230 229 228
268 265 277 305 297 268 258 259 271 282 284 286 298 303 306 309 309 310 311 311 312 312 312 310 310 305 299 293 288 280 278 279 271 263 255 250 246 241 234 227 228 229 229 231
Height
1507 1504 1504 1504 1502 1501 1505 1508 1512 1508 1505 1501 1498 1497 1495 1494 1493 1493 1492 1492 1492 1493 1493 1493 1494 1494 1495 1495 1496 1496 1497 1498 1498 1499 1500 1501 1502 1503 1504 1505 1505 1506 1506 1507
1507 1503 1503 1504 1502 1501 1501 1502 1503 1502 1503 1498 1497 1495 1494 1494 1493 1492 1492 1492 1492 1492 1492 1492 1492 1492 1492 1493 1493 1493 1494 1494 1495 1496 1497 1498 1498 1499 1500 1501 1502 1503 1503 1503
1514 1507 1505 1510 1503 1501 1501 1499 1500 1503 1501 1497 1496 1495 1494 1493 1493 1492 1492 1492 1491 1491 1490 1491 1490 1490 1490 1490 1491 1491 1491 1491 1492 1493 1493 1494 1495 1496 1497 1498 1498 1499 1500 1500
1515 1511 1516 1508 1497 1496 1497 1498 1497 1497 1497 1495 1494 1494 1494 1493 1492 1492 1491 1491 1490 1490 1490 1490 1489 1489 1488 1488 1488 1488 1488 1489 1489 1489 1490 1491 1492 1492 1493 1494 1495 1495 1496 1496
1518 1517 1512 1503 1497 1496 1498 1500 1497 1496 1495 1495 1493 1493 1494 1494 1493 1492 1491 1490 1489 1489 1489 1488 1488 1487 1486 1486 1486 1486 1486 1486 1486 1486 1487 1487 1488 1488 1489 1490 1491 1492 1492 1493
1515 1515 1514 1504 1495 1492 1494 1502 1497 1495 1494 1493 1492 1497 1497 1494 1493 1491 1491 1490 1489 1488 1487 1487 1486 1485 1485 1484 1483 1483 1483 1483 1483 1483 1483 1484 1484 1485 1486 1486 1487 1488 1488 1489
1513 1513 1507 1498 1493 1492 1503 1503 1497 1494 1493 1493 1493 1494 1493 1492 1492 1491 1489 1489 1488 1487 1485 1485 1484 1483 1483 1482 1481 1481 1480 1480 1480 1480 1480 1480 1481 1481 1482 1483 1484 1484 1484 1485
1511 1513 1509 1495 1494 1497 1498 1494 1494 1493 1492 1492 1491 1491 1491 1490 1490 1489 1488 1487 1486 1485 1484 1483 1482 1481 1480 1479 1479 1478 1478 1477 1476 1476 1477 1477 1477 1478 1478 1479 1479 1480 1480 1481
1504 1504 1497 1494 1494 1494 1494 1493 1493 1492 1492 1491 1490 1490 1490 1489 1489 1488 1487 1486 1484 1483 1482 1481 1481 1480 1478 1477 1476 1475 1474 1474 1473 1473 1473 1473 1473 1474 1474 1475 1475 1475 1476 1476
1501 1497 1495 1494 1493 1493 1493 1492 1491 1491 1490 1490 1489 1488 1488 1487 1487 1486 1485 1484 1482 1481 1479 1478 1478 1477 1476 1475 1474 1472 1471 1471 1470 1470 1470 1470 1470 1470 1470 1471 1471 1471 1472 1472
1498 1496 1494 1493 1492 1492 1491 1491 1490 1489 1489 1488 1487 1486 1485 1484 1484 1483 1482 1481 1480 1479 1477 1476 1475 1474 1473 1472 1471 1470 1469 1468 1467 1467 1466 1466 1466 1466 1466 1466 1467 1468 1468 1468
1495 1492 1492 1491 1491 1490 1489 1488 1488 1487 1486 1485 1484 1483 1482 1481 1481 1480 1479 1478 1477 1476 1474 1473 1472 1471 1470 1469 1468 1467 1466 1465 1464 1463 1463 1463 1462 1462 1462 1463 1463 1463 1464 1464
1488 1488 1488 1488 1488 1487 1486 1485 1485 1484 1483 1482 1481 1480 1479 1478 1477 1476 1475 1474 1473 1472 1471 1470 1468 1467 1467 1466 1465 1464 1463 1462 1461 1460 1460 1459 1459 1458 1458 1458 1458 1459 1460 1460
1485 1485 1485 1484 1484 1484 1483 1482 1481 1480 1479 1478 1477 1476 1475 1474 1473 1473 1472 1471 1470 1469 1467 1466 1465 1464 1463 1462 1461 1460 1459 1459 1458 1457 1456 1456 1455 1455 1454 1454 1454 1454 1455 1456
1483 1482 1481 1481 1481 1480 1479 1478 1477 1476 1475 1475 1474 1473 1472 1471 1470 1469 1468 1467 1466 1465 1464 1462 1461 1460 1459 1458 1457 1457 1456 1455 1454 1453 1453 1452 1452 1451 1450 1450 1450 1450 1450 1451
1480 1479 1478 1478 1477 1476 1475 1474 1473 1472 1471 1471 1470 1469 1468 1467 1466 1466 1465 1464 1463 1461 1460 1459 1457 1456 1456 1455 1454 1453 1452 1451 1450 1449 1448 1448 1447 1447 1446 1446 1446 1446 1446 1446
1477 1475 1475 1474 1473 1473 1472 1471 1470 1469 1468 1467 1466 1465 1464 1464 1463 1462 1461 1460 1459 1458 1456 1455 1454 1453 1452 1451 1450 1449 1448 1447 1446 1445 1444 1443 1443 1443 1442 1442 1442 1442 1442 1443
1474 1473 1473 1472 1471 1470 1469 1468 1467 1466 1465 1463 1463 1462 1461 1460 1458 1457 1456 1455 1454 1453 1452 1451 1450 1449 1448 1447 1446 1445 1444 1442 1441 1440 1440 1439 1439 1438 1438 1438 1438 1438 1438 1439
1471 1471 1470 1469 1468 1467 1466 1465 1464 1463 1462 1461 1459 1458 1457 1456 1455 1454 1453 1451 1450 1449 1448 1447 1446 1445 1443 1442 1441 1440 1439 1438 1437 1436 1435 1435 1435 1434 1434 1434 1434 1434 1434 1435
1469 1468 1467 1466 1465 1464 1463 1462 1461 1460 1459 1458 1457 1455 1454 1453 1452 1451 1449 1448 1447 1446 1444 1443 1442 1440 1439 1438 1437 1436 1435 1434 1433 1432 1431 1431 1431 1430 1430 1430 1430 1430 1430 1431
1467 1466 1464 1463 1462 1461 1460 1459 1458 1457 1456 1455 1454 1452 1451 1449 1448 1447 1445 1444 1443 1442 1441 1439 1438 1436 1435 1433 1433 1431 1430 1430 1429 1428 1428 1427 1427 1427 1427 1427 1426 1426 1427 1427
1464 1463 1461 1460 1459 1458 1457 1456 1455 1453 1452 1451 1450 1449 1447 1446 1445 1443 1442 1441 1440 1439 1437 1436 1434 1433 1431 1430 1429 1427 1427 1426 1425 1425 1424 1424 1423 1423 1423 1423 1423 1423 1423 1424
1461 1459 1458 1457 1456 1455 1454 1453 1451 1450 1449 1447 1446 1445 1444 1442 1441 1440 1438 1437 1436 1435 1434 1432 1431 1429 1428 1426 1425 1424 1423 1422 1421 1421 1421 1420 1420 1420 1419 1420 1420 1420 1420 1420
1457 1456 1455 1454 1453 1451 1450 1449 1448 1446 1445 1444 1443 1442 1440 1439 1437 1436 1435 1434 1432 1431 1430 1429 1428 1426 1425 1423 1422 1420 1420 1419 1418 1418 1417 1417 1417 1416 1416 1416 1416 1416 1416 1416
1453 1452 1451 1450 1449 1448 1447 1445 1444 1443 1442 1440 1439 1438 1437 1436 1435 1433 1432 1430 1429 1428 1426 1425 1424 1423 1421 1420 1419 1417 1416 1416 1415 1414 1414 1414 1413 1413 1413 1413 1413 1412 1412 1412
1449 1448 1448 1447 1446 1445 1444 1442 1441 1440 1438 1437 1436 1435 1434 1433 1432 1430 1429 1427 1426 1425 1423 1422 1421 1419 1418 1417 1416 1414 1413 1413 1412 1411 1411 1410 1410 1409 1409 1409 1409 1408 1408 1408
1446 1446 1445 1444 1443 1442 1441 1440 1438 1437 1436 1434 1433 1432 1431 1429 1428 1427 1426 1424 1423 1422 1420 1419 1417 1416 1415 1414 1412 1411 1410 1410 1409 1408 1407 1407 1406 1406 1405 1405 1405 1404 1404 1404